sat.trackr.live / text

‹ back to catalog

STARLINK-2455

NORAD 48117 · 2021-027AB

PAYLOAD ACTIVE UNKNOWN

§ Identity

Operator
Country
US
Launch date
2021-04-07
Launch site
AFETR
Launch vehicle
Mass (kg)
RCS (m²)

Purposes: comms

External: N2YO · Heavens-Above · Gunter

§ Orbital elements

Epoch: 2026-09-19T18:24:26.322912Z

Period
94.01 min
Inclination
53.1608°
Eccentricity
0.0001498
Mean motion
15.31698300 rev/d
Perigee alt
469.7 km
Apogee alt
471.8 km
Semi-major
6,848.9 km
B*
-2.1694e-5
RAAN
329.2894°
Arg perigee
98.6518°
Mean anomaly
261.4653°
Rev number
30,242

§ Raw data

STARLINK-24551 48117U 21027AB  26262.76697133 -.00001038  00000+0 -21694-4 0  99922 48117  53.1608 329.2894 0001498  98.6518 261.4653 15.31698300302426

JSON: /api/v1/satellites/48117 · /tle

For live sub-satellite position, see the globe view (requires WebGL).

§ Visibility from observer

Set your observer location to see the next 7 days of passes ≥ 10°. The values pass through the URL so the page stays shareable.

No JS? Fill the form by hand. The geolocation button needs JavaScript.